Home > Time Zones > World Clock > Weather > Fiji > Nadi > Past weeks

Flag for Fiji Weather past 2 weeks in Nadi, Fiji

Now
66 °F

Partly cloudy.


Feels Like: 66 °F
Forecast: 72 / 78 °F
Wind: 5 mph from East

Location: Nandi

Current Time: Jul 24, 2014 at 6:08:57 AM

Latest Report: Jul 24, 2014 at 5:00 AM


Visibility: N/A

Pressure: 29.89 "Hg

Humidity: 88%

Dew point: 63 °F

Location of NadiLocation

Historic Weather in Nadi — Graph

°F

Nadi temperature yesterday

Maximum temperature yesterday: 73 °F (at 12:00 PM)
Minimum temperature yesterday: 66 °F (at 3:00 AM)
Average temperature yesterday: 70 °F

Past Weeks' High & Low Weather Summary

 TemperatureHumidityPressure
High86 °F (Jul 10, 2:00 PM)100% (Jul 9, 6:00 AM)29.98 "Hg (Jul 9, 6:00 AM)
Low59 °F (Jul 12, 6:00 AM)48% (Jul 12, 3:00 PM)29.77 "Hg (Jul 13, 4:00 PM)
Average72 °F79%29.88 "Hg
* Reported Jul 9 5:00 AM — Jul 24 5:00 AM, Nadi, Weather by CustomWeather, © 2014

Note: Actual official high and low records may vary slightly from our data, if they occured in-between our weather recording intervals... More about our weather records

Advertising

Nadi weather history for previous 24 hours

 ConditionsComfort  
Time TempWeatherWind HumidityBarometerVisibility
5:00 AM
Jul 24
66 °FPartly cloudy.5 mph88%29.89 "HgN/A
4:00 AM66 °FPartly cloudy.5 mph88%29.92 "HgN/A
3:00 AM66 °FLight rain. Partly cloudy.5 mph88%29.89 "HgN/A
2:00 AM66 °FLight rain. Mostly cloudy.6 mph88%29.92 "HgN/A
1:00 AM66 °FLight rain. Mostly cloudy.3 mph88%29.92 "HgN/A
12:00 AM68 °FLight rain. Mostly cloudy.5 mph88%29.92 "HgN/A
11:00 PM
Jul 23
68 °FLight rain. Partly cloudy.3 mph83%29.92 "HgN/A
10:00 PM70 °FPartly cloudy.3 mph73%29.92 "HgN/A
9:00 PM70 °FPartly cloudy.5 mph78%29.92 "HgN/A
8:00 PM70 °FPartly cloudy.5 mph78%29.89 "HgN/A
6:00 PM72 °FPartly cloudy.7 mph69%29.83 "HgN/A
5:00 PM72 °FBroken clouds.9 mph69%29.83 "HgN/A
4:00 PM72 °FBroken clouds.9 mph69%29.80 "HgN/A
3:00 PM73 °FMore clouds than sun.10 mph65%29.83 "HgN/A
2:00 PM73 °FMore clouds than sun.9 mph74%29.83 "HgN/A
1:00 PM73 °FLight rain. More clouds than sun.9 mph74%29.86 "HgN/A
12:00 PM73 °FMore clouds than sun.12 mph69%29.86 "HgN/A
Weather by CustomWeather, © 2014

See weather overviewHow to use our weather pages